EJU27AW EDDH-EKCH

Flight info

Callsign EJU27AW
Flight time 0h 44m
Altitude 23000
Route LUGEG3G/33 LUGEG P605 GESKA/N0370F220 Z711 MONAK
Aircraft A320/M-SDE3FGHIRWY/LB1

Departure

Time 2026-05-04 18:06
Airport Hamburg Helmut Schmidt Airport (EDDH)

Arrival

Time 2026-05-04 18:50
Airport Copenhagen Kastrup Airport (EKCH)
Time Latitude Longitude Altitude Speed Heading
2026-05-04 17:38 53.62942 10.00288 49 ft 0 kts 123°
2026-05-04 17:38 53.62940 10.00294 49 ft 0 kts 122°
2026-05-04 17:49 53.62940 10.00293 49 ft 0 kts 122°
2026-05-04 17:58 53.62948 10.00273 45 ft 4 kts 122°
2026-05-04 17:58 53.62962 10.00235 47 ft 4 kts 122°
2026-05-04 17:58 53.62977 10.00197 47 ft 4 kts 122°
2026-05-04 17:59 53.62992 10.00160 45 ft 4 kts 134°
2026-05-04 17:59 53.63013 10.00136 48 ft 4 kts 177°
2026-05-04 17:59 53.63029 10.00140 45 ft 0 kts 213°
2026-05-04 18:01 53.63029 10.00141 48 ft 0 kts 213°
2026-05-04 18:02 53.63028 10.00140 48 ft 1 kts 213°
2026-05-04 18:03 53.62990 10.00099 48 ft 12 kts 213°
2026-05-04 18:03 53.62923 9.99999 48 ft 10 kts 241°
2026-05-04 18:03 53.62887 9.99883 46 ft 13 kts 243°
2026-05-04 18:03 53.62873 9.99749 43 ft 9 kts 301°
2026-05-04 18:04 53.62898 9.99720 45 ft 0 kts 333°
2026-05-04 18:05 53.62899 9.99718 45 ft 2 kts 333°
2026-05-04 18:05 53.63073 9.99568 46 ft 66 kts 332°
2026-05-04 18:05 53.63684 9.99039 48 ft 129 kts 333°
2026-05-04 18:05 53.64614 9.98229 304 ft 158 kts 332°
2026-05-04 18:06 53.66562 9.96588 1895 ft 159 kts 332°
2026-05-04 18:06 53.67609 9.95695 2382 ft 180 kts 330°
2026-05-04 18:06 53.68792 9.94673 2810 ft 202 kts 330°
2026-05-04 18:07 53.70083 9.93554 3421 ft 212 kts 329°
2026-05-04 18:07 53.71140 9.91927 4061 ft 213 kts 296°
2026-05-04 18:07 53.71452 9.89463 4733 ft 227 kts 263°
2026-05-04 18:07 53.71006 9.86759 5307 ft 249 kts 252°
2026-05-04 18:08 53.70442 9.83956 6284 ft 255 kts 251°
2026-05-04 18:08 53.69859 9.81106 7280 ft 258 kts 251°
2026-05-04 18:08 53.69273 9.78224 8266 ft 262 kts 251°
2026-05-04 18:08 53.68682 9.75298 9260 ft 266 kts 251°
2026-05-04 18:09 53.67482 9.69142 10612 ft 296 kts 256°
2026-05-04 18:09 53.68017 9.62094 11871 ft 325 kts 298°
2026-05-04 18:10 53.69573 9.59283 12720 ft 337 kts 324°
2026-05-04 18:10 53.71717 9.57581 13578 ft 344 kts 335°
2026-05-04 18:10 53.73956 9.56095 14384 ft 348 kts 335°
2026-05-04 18:10 53.76228 9.54623 15149 ft 351 kts 335°
2026-05-04 18:11 53.78523 9.53134 15915 ft 354 kts 335°
2026-05-04 18:11 53.80829 9.51619 16679 ft 358 kts 335°
2026-05-04 18:11 53.83128 9.50093 17423 ft 362 kts 334°
2026-05-04 18:11 53.85482 9.48522 18168 ft 365 kts 334°
2026-05-04 18:12 53.87855 9.46932 18814 ft 369 kts 334°
2026-05-04 18:12 53.90251 9.45325 19470 ft 372 kts 334°
2026-05-04 18:12 53.92661 9.43706 20136 ft 374 kts 333°
2026-05-04 18:12 53.95085 9.42074 20809 ft 377 kts 333°
2026-05-04 18:13 53.97528 9.40422 21421 ft 379 kts 332°
2026-05-04 18:13 53.99993 9.38756 22071 ft 382 kts 332°
2026-05-04 18:13 54.04963 9.35391 23345 ft 387 kts 332°
2026-05-04 18:14 54.07465 9.33695 23819 ft 390 kts 332°
2026-05-04 18:14 54.09992 9.31983 23955 ft 390 kts 332°
2026-05-04 18:14 54.12449 9.30322 23990 ft 383 kts 332°
2026-05-04 18:15 54.17378 9.26980 23989 ft 380 kts 331°
2026-05-04 18:15 54.22284 9.23634 23987 ft 380 kts 331°
2026-05-04 18:15 54.24739 9.21956 23991 ft 380 kts 331°
2026-05-04 18:16 54.27193 9.20274 23984 ft 380 kts 331°
2026-05-04 18:16 54.29643 9.18593 23987 ft 380 kts 331°
2026-05-04 18:16 54.32109 9.16896 23989 ft 381 kts 331°
2026-05-04 18:17 54.37041 9.13500 24048 ft 390 kts 332°
2026-05-04 18:17 54.39591 9.11767 24449 ft 396 kts 332°
2026-05-04 18:17 54.44722 9.08404 25608 ft 398 kts 332°
2026-05-04 18:18 54.47306 9.06730 26220 ft 397 kts 332°
2026-05-04 18:18 54.49891 9.05044 26773 ft 398 kts 332°
2026-05-04 18:18 54.52475 9.03345 26972 ft 397 kts 332°
2026-05-04 18:18 54.55166 9.02098 27009 ft 409 kts 346°
2026-05-04 18:19 54.60839 9.04113 27014 ft 437 kts 27°
2026-05-04 18:19 54.63331 9.07162 27007 ft 440 kts 32°
2026-05-04 18:19 54.65781 9.10319 27009 ft 440 kts 33°
2026-05-04 18:20 54.68229 9.13488 27008 ft 439 kts 33°
2026-05-04 18:20 54.70642 9.16605 27002 ft 438 kts 33°
2026-05-04 18:20 54.73084 9.19749 27000 ft 437 kts 33°
2026-05-04 18:20 54.75523 9.22888 27000 ft 437 kts 33°
2026-05-04 18:21 54.77953 9.26015 26994 ft 436 kts 33°
2026-05-04 18:21 54.80393 9.29157 27004 ft 436 kts 33°
2026-05-04 18:21 54.82830 9.32300 27007 ft 435 kts 33°
2026-05-04 18:21 54.85257 9.35435 27001 ft 435 kts 33°
2026-05-04 18:22 54.87679 9.38570 27011 ft 434 kts 33°
2026-05-04 18:22 54.90063 9.41661 26988 ft 427 kts 33°
2026-05-04 18:22 54.92425 9.44737 26992 ft 411 kts 33°
2026-05-04 18:22 54.94656 9.47648 26995 ft 404 kts 33°
2026-05-04 18:23 54.96896 9.50571 26994 ft 402 kts 33°
2026-05-04 18:23 54.99127 9.53480 27000 ft 400 kts 33°
2026-05-04 18:23 55.01356 9.56389 27000 ft 400 kts 33°
2026-05-04 18:23 55.03575 9.59290 27002 ft 399 kts 33°
2026-05-04 18:24 55.05795 9.62202 27003 ft 398 kts 34°
2026-05-04 18:24 55.07947 9.65205 26679 ft 396 kts 40°
2026-05-04 18:24 55.09787 9.68766 26269 ft 396 kts 52°
2026-05-04 18:24 55.11240 9.72830 25821 ft 396 kts 62°
2026-05-04 18:25 55.12268 9.77295 25350 ft 396 kts 72°
2026-05-04 18:25 55.13089 9.81883 24886 ft 395 kts 72°
2026-05-04 18:25 55.13892 9.86393 24437 ft 394 kts 72°
2026-05-04 18:25 55.14705 9.90964 23982 ft 393 kts 72°
2026-05-04 18:26 55.15513 9.95521 23545 ft 392 kts 72°
2026-05-04 18:26 55.16316 10.00047 23060 ft 389 kts 72°
2026-05-04 18:26 55.17116 10.04558 22665 ft 385 kts 72°
2026-05-04 18:26 55.17902 10.09001 22394 ft 379 kts 72°
2026-05-04 18:27 55.18672 10.13369 22119 ft 375 kts 72°
2026-05-04 18:27 55.19436 10.17729 21849 ft 373 kts 72°
2026-05-04 18:27 55.20184 10.22004 21589 ft 372 kts 72°
2026-05-04 18:27 55.20939 10.26311 21325 ft 370 kts 72°
2026-05-04 18:28 55.21691 10.30617 21067 ft 369 kts 72°
2026-05-04 18:28 55.22437 10.34915 20814 ft 368 kts 72°
2026-05-04 18:28 55.23179 10.39197 20556 ft 367 kts 72°
2026-05-04 18:28 55.23917 10.43464 20301 ft 365 kts 72°
2026-05-04 18:29 55.24650 10.47708 20049 ft 364 kts 72°
2026-05-04 18:29 55.25383 10.51950 19809 ft 363 kts 72°
2026-05-04 18:29 55.26110 10.56180 19569 ft 362 kts 72°
2026-05-04 18:29 55.26825 10.60345 19317 ft 361 kts 72°
2026-05-04 18:30 55.28268 10.68760 18837 ft 359 kts 72°
2026-05-04 18:30 55.28987 10.72940 18596 ft 358 kts 72°
2026-05-04 18:30 55.29706 10.77113 18357 ft 357 kts 72°
2026-05-04 18:31 55.30424 10.81280 18107 ft 356 kts 72°
2026-05-04 18:31 55.31137 10.85435 17829 ft 355 kts 72°
2026-05-04 18:31 55.31839 10.89573 17567 ft 353 kts 72°
2026-05-04 18:31 55.32526 10.93648 17302 ft 352 kts 72°
2026-05-04 18:32 55.33217 10.97764 17040 ft 351 kts 72°
2026-05-04 18:32 55.33902 11.01869 16771 ft 350 kts 72°
2026-05-04 18:32 55.34582 11.05957 16513 ft 348 kts 72°
2026-05-04 18:32 55.35262 11.10046 16256 ft 347 kts 72°
2026-05-04 18:33 55.35938 11.14110 16000 ft 346 kts 72°
2026-05-04 18:33 55.36609 11.18159 15744 ft 345 kts 72°
2026-05-04 18:33 55.37278 11.22199 15492 ft 344 kts 72°
2026-05-04 18:33 55.37931 11.26177 15248 ft 342 kts 73°
2026-05-04 18:34 55.38586 11.30191 14999 ft 341 kts 73°
2026-05-04 18:34 55.39239 11.34200 14746 ft 340 kts 73°
2026-05-04 18:34 55.39890 11.38184 14512 ft 339 kts 73°
2026-05-04 18:34 55.40540 11.42169 14277 ft 338 kts 73°
2026-05-04 18:35 55.41185 11.46138 14034 ft 337 kts 73°
2026-05-04 18:35 55.41827 11.50092 13790 ft 335 kts 73°
2026-05-04 18:35 55.42370 11.53438 13566 ft 334 kts 73°
2026-05-04 18:35 55.42928 11.56880 13331 ft 333 kts 73°
2026-05-04 18:36 55.43722 11.60686 13064 ft 330 kts 62°
2026-05-04 18:36 55.44860 11.64166 12800 ft 327 kts 57°
2026-05-04 18:36 55.45981 11.67582 12535 ft 326 kts 58°
2026-05-04 18:36 55.47100 11.71043 12282 ft 324 kts 58°
2026-05-04 18:37 55.48212 11.74486 12023 ft 322 kts 58°
2026-05-04 18:37 55.49319 11.77916 11764 ft 321 kts 58°
2026-05-04 18:37 55.50418 11.81326 11513 ft 319 kts 58°
2026-05-04 18:37 55.51513 11.84726 11266 ft 318 kts 58°
2026-05-04 18:38 55.52602 11.88105 10994 ft 316 kts 58°
2026-05-04 18:38 55.53688 11.91482 10672 ft 315 kts 58°
2026-05-04 18:38 55.54760 11.94816 10410 ft 313 kts 58°
2026-05-04 18:38 55.55817 11.98110 10173 ft 311 kts 58°
2026-05-04 18:39 55.56881 12.01424 9932 ft 310 kts 58°
2026-05-04 18:39 55.57941 12.04737 9678 ft 308 kts 58°
2026-05-04 18:39 55.58994 12.08028 9410 ft 307 kts 58°
2026-05-04 18:39 55.60045 12.11311 9149 ft 306 kts 58°
2026-05-04 18:40 55.61088 12.14570 8881 ft 304 kts 58°
2026-05-04 18:40 55.62127 12.17817 8619 ft 303 kts 58°
2026-05-04 18:40 55.63155 12.21036 8347 ft 294 kts 58°
2026-05-04 18:40 55.64130 12.24101 8100 ft 277 kts 58°
2026-05-04 18:41 55.65042 12.26977 7855 ft 268 kts 58°
2026-05-04 18:41 55.65948 12.29845 7599 ft 266 kts 58°
2026-05-04 18:41 55.66848 12.32693 7354 ft 263 kts 58°
2026-05-04 18:41 55.67738 12.35513 7107 ft 262 kts 58°
2026-05-04 18:42 55.68622 12.38326 6858 ft 261 kts 58°
2026-05-04 18:42 55.69505 12.41132 6608 ft 260 kts 58°
2026-05-04 18:42 55.70383 12.43923 6365 ft 258 kts 58°
2026-05-04 18:42 55.71254 12.46695 6109 ft 257 kts 58°
2026-05-04 18:43 55.72118 12.49450 5851 ft 255 kts 58°
2026-05-04 18:43 55.72978 12.52203 5592 ft 254 kts 58°
2026-05-04 18:43 55.73837 12.54934 5336 ft 252 kts 58°
2026-05-04 18:43 55.74677 12.57618 5084 ft 251 kts 58°
2026-05-04 18:44 55.75524 12.60319 4837 ft 250 kts 58°
2026-05-04 18:44 55.75811 12.61236 4742 ft 250 kts 58°
2026-05-04 18:44 55.77201 12.65696 4321 ft 248 kts 61°
2026-05-04 18:44 55.77654 12.68599 4070 ft 240 kts 82°
2026-05-04 18:45 55.77789 12.71453 4004 ft 229 kts 85°
2026-05-04 18:45 55.77885 12.74269 4007 ft 227 kts 85°
2026-05-04 18:45 55.77814 12.77046 3999 ft 226 kts 108°
2026-05-04 18:45 55.77007 12.79361 3761 ft 221 kts 142°
2026-05-04 18:46 55.75731 12.80858 3465 ft 220 kts 153°
2026-05-04 18:46 55.74378 12.82079 3170 ft 221 kts 163°
2026-05-04 18:46 55.72883 12.82226 2775 ft 216 kts 200°
2026-05-04 18:46 55.71638 12.80936 2470 ft 204 kts 225°
2026-05-04 18:47 55.70592 12.79297 2181 ft 197 kts 225°
2026-05-04 18:47 55.69577 12.77706 1912 ft 192 kts 225°
2026-05-04 18:47 55.68620 12.76215 1672 ft 174 kts 225°
2026-05-04 18:47 55.67739 12.74843 1437 ft 164 kts 225°
2026-05-04 18:48 55.66902 12.73539 1225 ft 154 kts 225°
2026-05-04 18:48 55.66147 12.72368 1007 ft 137 kts 226°
2026-05-04 18:48 55.65453 12.71288 817 ft 133 kts 225°
2026-05-04 18:48 55.64769 12.70215 644 ft 130 kts 224°
2026-05-04 18:49 55.64083 12.69164 463 ft 132 kts 224°
2026-05-04 18:49 55.63394 12.68098 303 ft 132 kts 225°
2026-05-04 18:49 55.62710 12.67024 123 ft 132 kts 225°
2026-05-04 18:49 55.62035 12.65981 20 ft 118 kts 224°
2026-05-04 18:50 55.61557 12.65235 16 ft 70 kts 221°
2026-05-04 18:50 55.61348 12.64899 18 ft 28 kts 227°
2026-05-04 18:50 55.61256 12.64630 17 ft 24 kts 248°
2026-05-04 18:50 55.61211 12.64401 17 ft 15 kts 251°
2026-05-04 18:51 55.61183 12.64244 17 ft 13 kts 258°
2026-05-04 18:51 55.61220 12.64119 17 ft 13 kts 329°
2026-05-04 18:51 55.61318 12.64158 18 ft 18 kts 33°
2026-05-04 18:51 55.61432 12.64288 17 ft 21 kts 33°
2026-05-04 18:52 55.61565 12.64442 18 ft 25 kts 33°
2026-05-04 18:52 55.61719 12.64617 18 ft 28 kts 33°
2026-05-04 18:52 55.61830 12.64747 19 ft 30 kts 33°
2026-05-04 18:52 55.61981 12.64920 17 ft 17 kts 33°
2026-05-04 18:53 55.62069 12.65021 18 ft 7 kts 33°
2026-05-04 18:53 55.62081 12.65034 19 ft 0 kts 33°
2026-05-04 18:56 55.62101 12.65058 17 ft 10 kts 33°
2026-05-04 18:56 55.62195 12.65167 17 ft 20 kts 32°
2026-05-04 18:56 55.62327 12.65206 18 ft 19 kts
2026-05-04 18:57 55.62432 12.65247 17 ft 13 kts 65°
2026-05-04 18:57 55.62439 12.65374 17 ft 7 kts 88°
2026-05-04 18:57 55.62462 12.65433 17 ft 7 kts 28°
2026-05-04 18:57 55.62499 12.65463 17 ft 1 kts 24°
2026-05-04 18:58 55.62509 12.65470 19 ft 2 kts 24°
2026-05-04 18:58 55.62514 12.65475 18 ft 0 kts 24°
2026-05-04 18:59 55.62514 12.65474 18 ft 0 kts 24°